Погода Макушино

Погода Макушино : погода сейчас, прогноз погоды и архив. Всё, что Вы хотите узнать о погоде Макушино!

Поиск расширенной информации на нашем сайте:

Другие новости

Новости СМИ2

Главная страница сайта

Новости сайта

03.07.2017

Напоминаем, что на нашем специализированном сайте Метеоцентр.Азия вы можете получить высокодетализированные автоматические прогнозы погоды по пунктам России, СНГ и мира в авиационном формате (включающие направление и скорость ветра, видимость, явления погоды, количество и форму облачности, нижнюю и верхнюю границу облачности).


Погода Макушино - сегодня

Время (UTC), дата Ветер
(°,м/с) 
Видим.   Явления Облачность Т
(°С)
Тd
(°С)
f(%) Тe
(°С)
Pmin
(гПа)
dP
(гПа)
Po
(мм)
O2
(г/м3)
Тmin Tmax R s Состояние
почвы
18 19.11.17 210 (ЮЗ) 20000 м    10/10 1000 м 
[Sc]
+0 -3.8 76 -1  1029.6  0.3  759  306           
21 19.11.17 190 (Ю) 20000 м    10/10 1000 м 
[Sc]
-0.5 -3 83 -2  1029.9  0.2  759  307           
00 20.11.17 200 (Ю) 4000 м  слаб. ливневой снег  10/10 600 м кучево-дожд. 
[Cb cap]
-1 -2.9 87 -4  1030  0.1  759  307           
03 20.11.17 210 (ЮЗ) 20000 м  {ливн. осадки}  10/10 600 м кучево-дожд. 
[Cb cap]
-1.6 -3.5 87 -4  1029.7  -0.4  759  308  -1.9    0.2  равномерный
сухой снег
100% 
06 20.11.17 210 (ЮЗ) 20000 м  {ливн. осадки}  8/3 1000 м верхняя 
[Sc|Ci sp]
-2.3 -5 82 -6  1030.2  0.5  759  309  -2.7         
09 20.11.17 210 (ЮЗ) 20000 м    6/0 верхняя 
[Ci sp]
-0.3 -3.8 77 -3  1029.5  -0.6  759  307           
12 20.11.17 210 (ЮЗ) 20000 м    8/4 1000 м верхняя 
[Sc|Ci fib]
-1.8 -4.3 83 -5  1029.9  0.3  759  308           
15 20.11.17 210 (ЮЗ) 20000 м    10/10 1000 м 
[Sc]
-1 -3.1 86 -3  1029.8  0.1  759  307    -0.3       
18 20.11.17 200 (Ю) 20000 м    10/10 1000 м 
[Sc]
+0 -2.5 83 -2  1028.9  -0.8  758  306           
21 20.11.17 210 (ЮЗ) 20000 м    10/10 1000 м 
[Sc]
-0.7 -3 84 -4  1029.1  0.1  758  307           
00 21.11.17 200 (Ю) 20000 м    6/6 1000 м 
[Sc]
-1.7 -3.9 85 -4  1029.3  0.1  759  308           
03 21.11.17 210 (ЮЗ) 20000 м    3/3 1500 м 
[Sc]
-2 -4.7 82 -5  1029.2  0.1  758  308  -2      равномерный
сухой снег
100% 
06 21.11.17 210 (ЮЗ) 20000 м    6/6 1500 м 
[Sc]
-0.1 -4.1 74 -3  1029.5  0.1  759  306  -2.4         
09 21.11.17 200 (Ю) 20000 м    5/5 1500 м 
[Sc]
+0.7 -4.4 69 -1  1029.7  0.3  759  306           
12 21.11.17 200 (Ю) 20000 м    5/0 верхняя 
[Ci fib]
-1.7 -5.2 77 -4  1030.1  0.3  759  308           
15 21.11.17 180 (Ю) 20000 м    3/0 верхняя 
[Ci fib]
-2.3 -6 76 -5  1029.5  -0.6  759  309    +1.7       
18 21.11.17 170 (Ю) 20000 м    3/0 верхняя 
[Ci fib]
-2.4 -6.3 75 -4  1028.7  -0.6  758  309           
21 21.11.17 160 (Ю) 20000 м    3/0 верхняя 
[Ci fib]
-3.4 -7 76 -6  1028  -0.7  758  310           
00 22.11.17 160 (Ю) 20000 м    3/0 верхняя 
[Ci fib]
-4.2 -7.1 80 -6  1026.9  -1.2  757  310           
03 22.11.17 160 (Ю) 20000 м    6/6 1000 м 
[Sc]
-4.2 -7.9 75 -7  1026.2  -0.7  756  310  -5.3      равномерный
сухой снег
100% 
06 22.11.17 170 (Ю) 20000 м    6/3 1000 м верхняя 
[Sc|Ci sp]
-1.4 -7.4 64 -4  1025.6  -0.4  756  307           
09 22.11.17 180 (Ю) 20000 м    4/4 1000 м 
[Sc]
+0.7 -6.9 57 -1  1025.2  -0.2  756  304           
12 22.11.17 150 (ЮВ) 20000 м    6/6 1000 м 
[Sc]
-1.4 -6.6 68 -2  1024.7  -0.7  755  307           
15 22.11.17 120 (ЮВ) 20000 м    3/3 1000 м 
[Sc]
-2.8 -6.5 76 -4  1024.5  -0.2  755  308    +1.1       
18 22.11.17 140 (ЮВ) 20000 м    8/8 1000 м 
[Sc]
-2.9 -6.8 74 -5  1024.1  -0.5  755  308           
Время (UTC), дата Ветер
(°,м/с) 
Видим.   Явления Облачность Т
(°С)
Тd
(°С)
f(%) Тe
(°С)
Pmin
(гПа)
dP
(гПа)
Po
(мм)
O2
(г/м3)
Тmin Tmax R s Состояние
почвы

Для получения пояснительной информации подведите курсор к названию столбца.

ПОГОДА Макушино - архив

Всё, что Вы хотите узнать о погоде Макушино - удобно и подробно!

Выберите нужную дату (начиная с 1 января 2015* года) и нажмите кнопку "Найти".
Будут отображены архивные сводки погоды по пункту Макушино, начиная с указанной даты.


Отображать данные в формате CSV (для использования в таблицах Excel)


Внимание! Наш архив погоды предназначен исключительно для личного некоммерческого использования в познавательных целях. Если Вам необходимы официальные справки о состоянии погоды (для производственных, юридических, коммерческих и т.п. целей), обращайтесь в органы Росгидромета.

*Примечание: данная дата относится к архиву по метеостанциям СССР (Россия, СНГ, Балтия).
Архив по метеостанциям Зарубежной Европы и Азии (кроме Китая) хранится 10 дней, по другим регионам земного шара (Китай, Африка, Америка, Австралия, Океания) - 1 день.

Макушино - район местоположения метеостанции


Название, широта, долгота, высота метеостанции:
Макушино 55.2°ш. 67.3°д. 140 м над ур. моря [Российская Федерация]

Дополнительная информация

В oтличие oт бoльшинства пoгoдных сайтoв мы публикуем пoдрoбную метеoинфoрмацию в детальнoм прoфессиoнальнoм фoрмате.

Характеристики температуры и влажнoсти вoздуха измеряются на высoте 2 м в тени вдали oт зданий и деревьев.
Скoрoсть ветра измеряется на высoте 10 м (на урoвне рoста челoвека скoрoсть ветра ниже в 1.5-2 раза). Если метеoстанция нахoдится в гoрoде или в лесу, тo скoрoсть ветра занижена на 2-4 м/с пo сравнению с oткрытым местoм. Скoрoсть ветра над акватoриями крупных рек и oзёр, а также на вершинах хoлмoв на 2-5 м/с выше, чем в oбычных услoвиях.
Атмoсфернoе давление в разных тoчках местнoсти мoжет значительнo oтличаться oт давления на метеoстанции, в зависимoсти oт услoвий рельефа (при пoдъёме на 10 м давление пoнижается примернo на 1 мм рт.ст.).